KOSEN 1
1 49402U 21102H   25338.69021913  .00017472  00000-0  73378-3 0  9999
2 49402  97.3480  19.7492 0014981 168.1569 192.0023 15.23407311224375
HO-113
1 50466U 21131B   25338.87380936  .00001274  00000-0  40937-3 0  9994
2 50466  98.5060  67.3350 0003464 334.9401  25.1619 14.41096291207129
SNUGLITE 2
1 52899U 22065F   25338.66794264  .00003002  00000-0  58431-3 0  9992
2 52899  98.1920 119.2466 0006379 274.9886  85.0588 14.63799750182536
UmKA 1 (RS40S)
1 57172U 23091G   25338.83250912  .00014979  00000-0  73690-3 0  9996
2 57172  97.5357  33.3322 0015048  78.2552 282.0369 15.18005288134492
CubeBel-2 (EU11S)
1 57175U 23091K   25338.84136987  .00028042  00000-0  11651-2 0  9999
2 57175  97.5355  35.7584 0012395  81.2059 279.0581 15.23706417134655
RS-38S
1 57189U 23091Z   25338.85362529  .00031078  00000-0  11017-2 0  9997
2 57189  97.5381  40.1542 0009347  48.6698 311.5345 15.28994820134924
SONATE-2
1 59112U 24043Q   25338.68533215  .00053925  00000-0  11599-2 0  9996
2 59112  97.5327 114.6397 0008917 190.9656 169.1399 15.44432722 97733
MO-122
1 60209U 24125G   25338.56767590  .00062203  00000-0  12859-2 0  9997
2 60209  97.2527 188.9374 0013570 209.8975 150.1501 15.45508538 79347
GRBBeta
1 60237U 24128C   25338.77689451  .00010453  00000-0  72819-3 0  9996
2 60237  61.9888 177.4099 0056588  95.1199 265.6355 15.04631162 76995
Curium One
1 60242U 24128H   25338.77652278  .00019244  00000-0  11879-2 0  9994
2 60242  61.9775 172.4750 0056445  92.0493 268.7066 15.08661340 77089
ROBUSTA-3A
1 60243U 24128J   25338.77642740  .00016548  00000-0  10414-2 0  9996
2 60243  61.9851 173.9734 0056459  89.5034 271.2528 15.08041960 77060
CatSat
1 60246U 24125J   25338.81311130  .00072213  00000-0  17790-2 0  9992
2 60246  97.2321 186.2866 0033912 172.9987 187.1740 15.39713816 77301
HYPERVIEW-1G (RS66S)
1 61772U 24199AP  25338.85333447  .00072339  00000-0  14253-2 0  9997
2 61772  97.3219 208.1939 0008109 274.3196  85.7127 15.46931748104393
AO-123
1 61781U 24199AY  25338.89908341  .00020595  00000-0  67264-3 0  9990
2 61781  97.3256 204.4354 0013066 287.5392  72.4421 15.31697597104144
ZIMSAT 2
1 61783U 24199BA  25338.83420956  .00277288  00000-0  22999-2 0  9995
2 61783  97.3112 211.4243 0002944 253.8359 106.2579 15.69360018107761
HADES-R (SO-124)
1 62690U 25009CK  25338.22036280  .00271485  00000-0  38555-2 0  9998
2 62690  97.3900  60.5333 0001722 221.6641 138.4483 15.55463852 49454
HYDRA-T
1 62692U 25009CM  25338.46484786  .00296686  00000-0  39596-2 0  9990
2 62692  97.3893  60.9677 0001732 236.3583 123.7507 15.57066792 49505
JINJUSat 1B
1 63210U 25052A   25338.65711705  .00035766  00000-0  13756-2 0  9990
2 63210  97.4210 230.8646 0005917  64.0620 296.1228 15.26297183 40352
NUSHSAT 1
1 63211U 25052B   25338.65784382  .00040974  00000-0  15282-2 0  9995
2 63211  97.4191 230.9758 0005951  66.6349 293.5516 15.27284288 40365
TEVEL2-4
1 63213U 25052D   25338.65522823  .00038689  00000-0  14719-2 0  9991
2 63213  97.4110 230.5420 0005210  78.2790 281.9033 15.26644751 40355
TEVEL2-5
1 63214U 25052E   25338.20145839  .00040706  00000-0  15529-2 0  9994
2 63214  97.4107 230.0802 0005131  80.1451 280.0367 15.26541551 40285
TEVEL2-6
1 63215U 25052F   25338.66735751  .00038189  00000-0  14581-2 0  9992
2 63215  97.4114 230.5314 0005338  78.9392 281.2447 15.26527208 40358
TEVEL2-1
1 63217U 25052H   25338.64277042  .00037787  00000-0  14568-2 0  9994
2 63217  97.4089 230.3249 0005406  86.9099 273.2758 15.26207042 40341
TEVEL2-3
1 63218U 25052J   25338.64208551  .00037439  00000-0  14426-2 0  9991
2 63218  97.4091 230.3293 0005410  87.9076 272.2782 15.26226600 40342
TEVEL2-2
1 63219U 25052K   25338.64354698  .00037832  00000-0  14585-2 0  9999
2 63219  97.4089 230.3258 0005430  87.8026 272.3834 15.26208123 40346
TEVEL2-9
1 63237U 25052AD  25338.66432021  .00035434  00000-0  14273-2 0  9998
2 63237  97.4152 230.0644 0008987 103.5180 256.7059 15.24732965 40316
TEVEL2-7
1 63238U 25052AE  25338.67745005  .00034346  00000-0  13896-2 0  9990
2 63238  97.4152 230.0532 0009159 103.5685 256.6573 15.24590128 40318
TEVEL2-8
1 63239U 25052AF  25338.68295038  .00033383  00000-0  13519-2 0  9990
2 63239  97.4151 230.0435 0009201 103.7964 256.4298 15.24562981 40318
HYDRA-W
1 63490U 25052BL  25338.25800436  .00139763  00000-0  34688-2 0  9995
2 63490  97.4075 231.9261 0011441  91.6898 268.5658 15.39742632 40413
HADES-ICM (SO-125)
1 63492U 25052BN  25338.69796573  .00111185  00000-0  29245-2 0  9992
2 63492  97.4083 232.1245 0011554  95.0755 265.1809 15.38073707 40469
Dragonfly
1 65729U 98067XH  25338.78355088  .00218353  00000-0  18217-2 0  9997
2 65729  51.6240 176.4076 0006568 226.1978 133.8476 15.68817694 11919
RSP-03
1 65732U 98067XL  25338.83304308  .00168179  00000-0  15711-2 0  9992
2 65732  51.6252 176.7443 0006516 202.2762 157.7951 15.66202862 11923
GHS-01
1 65733U 98067XM  25338.81146514  .00266248  00000-0  20185-2 0  9991
2 65733  51.6270 175.8507 0006908 226.7602 133.2820 15.70973864 11931
BOTAN
1 65942U 98067XP  25338.65604502  .00149041  00000-0  17279-2 0  9992
2 65942  51.6268 180.0664 0004265 180.2775 179.8217 15.60784931  8601
SPIRONE
1 66657U 25274H   25338.76570646  .00006974  00000-0  68587-3 0  9995
2 66657  97.7384 266.1090 0011084 306.6759  53.3440 14.92378919  1210
K-HERO
1 66660U 25274L   25338.69591264  .00006561  00000-0  63713-3 0  9998
2 66660  97.7392 266.0473 0012996 311.4036  48.6065 14.92887690  1202
CEVROSAT1
1 98526U 25248E   25313.13142326  .00000000  00000-0  19360-3 0    02
2 98526  45.4084 218.4764 0001315 254.8982 242.1062 15.17981583    02
